• In Portugal
  • List of Countries
  • For 7 days
  • Water Temperature
  • Satellite Maps
  • Weather Map
  • Weather Widgets
  • user-avatar
    Login

    Hourly Weather Chitole

    Today, 17 July, Tuesday

    Time Temperature Precipitation Wind Pressure Humidity
    00:00 +17°C° 0 mm 5 mps 676 mmHg 49%
    01:00 +17°C° 0 mm 4 mps 676 mmHg 53%
    02:00 +15°C° 0 mm 4 mps 676 mmHg 56%
    03:00 +14°C° 0 mm 4 mps 676 mmHg 60%
    04:00 +14°C° 0 mm 3 mps 676 mmHg 63%
    05:00 +14°C° 0 mm 4 mps 676 mmHg 63%
    06:00 +14°C° 0 mm 5 mps 677 mmHg 64%
    07:00 +15°C° 0 mm 6 mps 677 mmHg 62%
    08:00 +17°C° 0 mm 6 mps 677 mmHg 55%
    09:00 +20°C° 0 mm 6 mps 678 mmHg 48%
    10:00 +22°C° 0 mm 6 mps 678 mmHg 41%
    11:00 +23°C° 0 mm 5 mps 678 mmHg 36%
    12:00 +26°C° 0 mm 5 mps 678 mmHg 32%
    13:00 +27°C° 0 mm 4 mps 677 mmHg 28%
    14:00 +27°C° 0 mm 4 mps 677 mmHg 28%
    15:00 +27°C° 0 mm 4 mps 676 mmHg 28%
    16:00 +26°C° 0 mm 4 mps 676 mmHg 29%
    17:00 +25°C° 0 mm 4 mps 676 mmHg 33%
    18:00 +22°C° 0 mm 4 mps 676 mmHg 37%
    19:00 +20°C° 0 mm 4 mps 676 mmHg 41%
    20:00 +19°C° 0 mm 4 mps 676 mmHg 44%
    21:00 +19°C° 0 mm 5 mps 677 mmHg 47%
    22:00 +17°C° 0 mm 5 mps 677 mmHg 49%
    23:00 +16°C° 0 mm 5 mps 677 mmHg 52%

    Tomorrow, 18 July, Wednesday

    Time Temperature Precipitation Wind Pressure Humidity
    00:00 +15°C° 0 mm 5 mps 677 mmHg 55%
    01:00 +15°C° 0 mm 4 mps 676 mmHg 58%
    02:00 +14°C° 0 mm 4 mps 676 mmHg 61%
    03:00 +13°C° 0 mm 4 mps 676 mmHg 64%
    04:00 +13°C° 0 mm 4 mps 676 mmHg 66%
    05:00 +13°C° 0 mm 4 mps 676 mmHg 65%
    06:00 +13°C° 0 mm 5 mps 676 mmHg 65%
    07:00 +13°C° 0 mm 5 mps 677 mmHg 64%
    08:00 +16°C° 0 mm 5 mps 677 mmHg 56%
    09:00 +19°C° 0 mm 5 mps 678 mmHg 48%
    10:00 +21°C° 0 mm 5 mps 678 mmHg 39%
    11:00 +23°C° 0 mm 5 mps 678 mmHg 35%
    12:00 +25°C° 0 mm 5 mps 677 mmHg 31%
    13:00 +27°C° 0 mm 4 mps 677 mmHg 27%
    14:00 +26°C° 0 mm 4 mps 676 mmHg 27%
    15:00 +26°C° 0 mm 4 mps 676 mmHg 27%
    16:00 +26°C° 0 mm 4 mps 675 mmHg 27%
    17:00 +24°C° 0 mm 3 mps 675 mmHg 32%
    18:00 +21°C° 0 mm 3 mps 675 mmHg 36%
    19:00 +19°C° 0 mm 2 mps 675 mmHg 41%
    20:00 +18°C° 0 mm 2 mps 676 mmHg 43%
    21:00 +17°C° 0 mm 3 mps 676 mmHg 46%
    22:00 +17°C° 0 mm 3 mps 676 mmHg 48%
    23:00 +16°C° 0 mm 3 mps 676 mmHg 50%

    Day after tomorrow, 19 July, Thursday

    Time Temperature Precipitation Wind Pressure Humidity
    00:00 +15°C° 0 mm 4 mps 676 mmHg 52%
    01:00 +15°C° 0 mm 4 mps 676 mmHg 53%
    02:00 +14°C° 0 mm 4 mps 676 mmHg 56%
    03:00 +13°C° 0 mm 4 mps 675 mmHg 59%
    04:00 +12°C° 0 mm 4 mps 675 mmHg 61%
    05:00 +12°C° 0 mm 4 mps 675 mmHg 62%
    06:00 +13°C° 0 mm 5 mps 676 mmHg 62%
    07:00 +13°C° 0 mm 5 mps 676 mmHg 62%
    08:00 +15°C° 0 mm 5 mps 677 mmHg 54%
    09:00 +19°C° 0 mm 5 mps 678 mmHg 45%
    10:00 +21°C° 0 mm 5 mps 678 mmHg 37%
    11:00 +23°C° 0 mm 5 mps 678 mmHg 32%
    12:00 +25°C° 0 mm 4 mps 677 mmHg 28%
    13:00 +27°C° 0 mm 4 mps 676 mmHg 23%
    14:00 +27°C° 0 mm 4 mps 676 mmHg 23%
    15:00 +27°C° 0 mm 4 mps 675 mmHg 23%
    16:00 +27°C° 0 mm 3 mps 674 mmHg 23%
    17:00 +24°C° 0 mm 3 mps 675 mmHg 27%
    18:00 +21°C° 0 mm 3 mps 675 mmHg 31%
    19:00 +19°C° 0 mm 2 mps 675 mmHg 36%
    20:00 +18°C° 0 mm 2 mps 675 mmHg 38%
    21:00 +17°C° 0 mm 3 mps 675 mmHg 41%
    22:00 +16°C° 0 mm 3 mps 675 mmHg 44%
    23:00 +16°C° 0 mm 3 mps 675 mmHg 47%

    20 July, Friday

    Time Temperature Precipitation Wind Pressure Humidity
    00:00 +14°C° 0 mm 3 mps 675 mmHg 51%
    01:00 +13°C° 0 mm 3 mps 675 mmHg 54%
    02:00 +13°C° 0 mm 3 mps 674 mmHg 58%
    03:00 +12°C° 0 mm 3 mps 674 mmHg 62%
    04:00 +11°C° 0 mm 3 mps 674 mmHg 67%
    05:00 +11°C° 0 mm 4 mps 674 mmHg 67%
    06:00 +12°C° 0 mm 4 mps 675 mmHg 68%
    07:00 +12°C° 0 mm 4 mps 675 mmHg 68%
    08:00 +15°C° 0 mm 4 mps 676 mmHg 58%
    09:00 +19°C° 0 mm 4 mps 676 mmHg 48%
    10:00 +22°C° 0 mm 4 mps 677 mmHg 38%
    11:00 +23°C° 0 mm 4 mps 676 mmHg 33%
    12:00 +26°C° 0 mm 4 mps 675 mmHg 28%
    13:00 +27°C° 0 mm 3 mps 675 mmHg 23%
    14:00 +27°C° 0 mm 3 mps 674 mmHg 22%
    15:00 +27°C° 0 mm 3 mps 674 mmHg 21%
    16:00 +28°C° 0 mm 3 mps 674 mmHg 21%
    17:00 +25°C° 0 mm 3 mps 674 mmHg 25%
    18:00 +22°C° 0 mm 3 mps 674 mmHg 29%
    19:00 +19°C° 0 mm 2 mps 674 mmHg 33%
    20:00 +18°C° 0 mm 2 mps 674 mmHg 35%
    21:00 +17°C° 0 mm 3 mps 675 mmHg 38%
    22:00 +17°C° 0 mm 3 mps 675 mmHg 40%
    23:00 +16°C° 0 mm 3 mps 675 mmHg 44%

    21 July, Saturday

    Time Temperature Precipitation Wind Pressure Humidity
    00:00 +14°C° 0 mm 3 mps 674 mmHg 47%
    01:00 +14°C° 0 mm 3 mps 674 mmHg 50%
    02:00 +13°C° 0 mm 3 mps 674 mmHg 53%
    03:00 +13°C° 0 mm 3 mps 674 mmHg 56%
    04:00 +12°C° 0 mm 3 mps 674 mmHg 59%
    05:00 +12°C° 0 mm 4 mps 674 mmHg 59%
    06:00 +13°C° 0 mm 4 mps 675 mmHg 59%
    07:00 +13°C° 0 mm 5 mps 675 mmHg 59%
    08:00 +16°C° 0 mm 5 mps 676 mmHg 51%
    09:00 +20°C° 0 mm 5 mps 676 mmHg 42%
    10:00 +23°C° 0 mm 5 mps 677 mmHg 34%
    11:00 +26°C° 0 mm 4 mps 676 mmHg 30%
    12:00 +27°C° 0 mm 4 mps 676 mmHg 26%
    13:00 +29°C° 0 mm 3 mps 675 mmHg 21%
    14:00 +29°C° 0 mm 3 mps 675 mmHg 21%
    15:00 +29°C° 0 mm 3 mps 674 mmHg 20%
    16:00 +29°C° 0 mm 3 mps 674 mmHg 19%
    17:00 +26°C° 0 mm 3 mps 674 mmHg 23%
    18:00 +24°C° 0 mm 2 mps 674 mmHg 27%
    19:00 +20°C° 0 mm 2 mps 674 mmHg 31%
    20:00 +19°C° 0 mm 2 mps 675 mmHg 33%
    21:00 +19°C° 0 mm 3 mps 675 mmHg 35%
    22:00 +18°C° 0 mm 3 mps 675 mmHg 38%
    23:00 +17°C° 0 mm 3 mps 675 mmHg 40%

    22 July, Sunday

    Time Temperature Precipitation Wind Pressure Humidity
    00:00 +16°C° 0 mm 3 mps 675 mmHg 42%
    01:00 +16°C° 0 mm 3 mps 675 mmHg 45%
    02:00 +14°C° 0 mm 3 mps 674 mmHg 48%
    03:00 +14°C° 0 mm 3 mps 674 mmHg 51%
    04:00 +13°C° 0 mm 3 mps 674 mmHg 54%
    05:00 +14°C° 0 mm 4 mps 675 mmHg 55%
    06:00 +14°C° 0 mm 4 mps 675 mmHg 56%
    07:00 +14°C° 0 mm 5 mps 676 mmHg 57%
    08:00 +17°C° 0 mm 5 mps 676 mmHg 50%
    09:00 +21°C° 0 mm 5 mps 677 mmHg 42%
    10:00 +25°C° 0 mm 5 mps 677 mmHg 34%
    11:00 +27°C° 0 mm 5 mps 677 mmHg 30%
    12:00 +28°C° 0 mm 4 mps 676 mmHg 26%
    13:00 +30°C° 0 mm 4 mps 676 mmHg 21%
    14:00 +30°C° 0 mm 4 mps 675 mmHg 21%
    15:00 +30°C° 0 mm 4 mps 675 mmHg 20%
    16:00 +30°C° 0 mm 4 mps 674 mmHg 19%
    17:00 +27°C° 0 mm 3 mps 675 mmHg 23%
    18:00 +25°C° 0 mm 3 mps 675 mmHg 28%
    19:00 +21°C° 0 mm 2 mps 675 mmHg 32%
    20:00 +21°C° 0 mm 3 mps 675 mmHg 34%
    21:00 +20°C° 0 mm 3 mps 675 mmHg 36%
    22:00 +19°C° 0 mm 3 mps 675 mmHg 39%
    23:00 +18°C° 0 mm 3 mps 675 mmHg 41%
    Show more